Regional Weather Roundup
Issued by NWS

Home | Current Version | Previous Version | Graphics & Text | Print | Product List | Glossary On
Versions: 1 2 3 4 5 6 7 8 9 10 11 12 13 14 15 16 17 18 19 20 21 22 23 24 25 26 27 28 29 30 31 32 33 34 35 36 37 38 39 40 41 42 43 44 45 46 47 48 49 50
000
ASUS43 KMKX 232100
RWRWI

WISCONSIN REGIONAL WEATHER ROUNDUP
NATIONAL WEATHER SERVICE MILWAUKEE/SULLIVAN WI
400 PM CDT TUE SEP 23 2014

NOTE: "FAIR" INDICATES FEW OR NO CLOUDS BELOW 12,000 FEET WITH NO
SIGNIFICANT WEATHER AND/OR OBSTRUCTIONS TO VISIBILITY.

WIZ001-002-006>008-014>016-023>028-232200-
NORTHWEST WISCONSIN

CITY           SKY/WX    TMP DP  RH WIND       PRES   REMARKS
SUPERIOR ARPT  SUNNY     74  52  45 SW13      30.15F
ASHLAND        SUNNY     75  51  43 SW7       30.18F
HAYWARD        SUNNY     72  49  44 S16       30.20F
SIREN          MOSUNNY   73  48  41 S12G18    30.18F
CUMBERLAND     CLEAR     70  46  43 S8        30.20F
RICE LAKE      SUNNY     71  50  47 S14       30.22S
CHETEK         CLEAR     72  52  49 SE8       30.21F
LADYSMITH      SUNNY     73  52  47 S9        30.23F
EAU CLAIRE     NOT AVBL
MENOMONIE      PTCLDY    74  50  43 S6G16     30.20F
NEW RICHMOND   SUNNY     71  49  45 S7        30.18F
OSCEOLA        SUNNY     74  50  42 S9        30.19F
$$

WIZ003>005-009-010-017-018-232200-
NORTH CENTRAL WISCONSIN

CITY           SKY/WX    TMP DP  RH WIND       PRES   REMARKS
MANITOWISH WTR CLEAR     72  49  44 SW6       30.23F
ARBOR VITAE    SUNNY     73  49  42 SW7       30.23F
WOODRUFF       SUNNY     73  49  42 SW7       30.23F
RHINELANDER    SUNNY     71  48  43 S7        30.25F
EAGLE RIVER    SUNNY     73  44  36 SW6       30.24S
LAND O LAKES   SUNNY     74  46  37 SW7       30.24F
PHILLIPS       MOSUNNY   72  50  45 SW5       30.22F
TOMAHAWK       SUNNY     73  49  42 CALM      30.24F
MEDFORD        SUNNY     70  51  50 S9        30.24F
MERRILL        SUNNY     73  51  45 CALM      30.24F
$$

WIZ029-030-035-036-043>047-232200-
CENTRAL WISCONSIN

CITY           SKY/WX    TMP DP  RH WIND       PRES   REMARKS
WAUSAU         SUNNY     72  49  44 SW6       30.23F
MOSINEE        SUNNY     72  52  49 S8        30.25F
MARSHFIELD     SUNNY     73  51  46 S8        30.23F
STEVENS POINT  SUNNY     71  47  42 SW6       30.25F
WAUPACA        SUNNY     76  51  40 CALM      30.25F
WAUTOMA        NOT AVBL
WISC RAPIDS    SUNNY     73  49  42 SW10      30.25F
CAMP DOUGLAS   NOT AVBL
$$

WIZ011>013-019>022-031-037>040-048>050-232200-
NORTHEAST WISCONSIN

CITY           SKY/WX    TMP DP  RH WIND       PRES   REMARKS
ANTIGO         SUNNY     71  50  47 SW9       30.26F
SHAWANO        CLEAR     76  50  40 SW3       30.25F
OCONTO         CLEAR     72  55  54 S7        30.24F
STURGEON BAY   SUNNY     70  55  60 S9        30.26F
GREEN BAY      SUNNY     73  53  49 S9        30.25F
MANITOWOC      NOT AVBL
APPLETON       SUNNY     73  48  40 SW7       30.26F
CLINTONVILLE   SUNNY     73  50  43 SW6       30.24F
OSHKOSH        SUNNY     74  51  44 W7        30.25F
$$

WIZ032>034-041-042-053>061-232200-
SOUTHWEST WISCONSIN

CITY           SKY/WX    TMP DP  RH WIND       PRES   REMARKS
LA CROSSE      MOSUNNY   74  51  44 S10       30.21F
SPARTA         MOSUNNY   73  49  41 SW7       30.25S
VIROQUA        PTCLDY    71  49  45 S7        30.25F
BOSCOBEL       SUNNY     75  48  38 VRB5      30.24F
PRAIRIE DU CHI SUNNY     73  44  35 SE8       30.23F
PLATTEVILLE    SUNNY     73  48  41 S9        30.26F
$$

WIZ056-057-062-063-064-067-068-232200-
SOUTH CENTRAL WISCONSIN

CITY           SKY/WX    TMP DP  RH WIND       PRES   REMARKS
REEDSBURG      CLEAR     71  51  49 SW8       30.25F
BARABOO/DELLS  SUNNY     74  46  37 S5        30.25F
LONE ROCK      NOT AVBL
MINERAL POINT  MOSUNNY   73  43  33 S3        30.26F
MADISON        MOSUNNY   73  47  39 S9        30.26F
MIDDLETON      CLEAR     75  43  31 S6        30.27F
WATERTOWN      SUNNY     73  50  44 S3        30.26F
MONROE         SUNNY     72  46  40 S7        30.27F
JANESVILLE     SUNNY     73  48  40 SE9       30.27F
$$

WIZ051-052-058>065-066-070>072-232200-
SOUTHEAST WISCONSIN

CITY           SKY/WX    TMP DP  RH WIND       PRES   REMARKS
MILWAUKEE      MOSUNNY   70  51  51 SE12      30.27F
WAUKESHA       SUNNY     72  46  40 SW7       30.28F
MILWAUKEE/TIMM SUNNY     73  45  35 CALM      30.27F
RACINE         SUNNY     70  50  49 S9        30.29F
BURLINGTON     SUNNY     72  46  39 SW6       30.27F
KENOSHA        SUNNY     73  51  46 VRB6      30.28F
FOND DU LAC    SUNNY     73  51  46 SW3       30.26F
SHEBOYGAN      SUNNY     74  51  44 S7        30.26F
WEST BEND      SUNNY     72  46  40 W6        30.27F
JUNEAU         SUNNY     72  49  43 S8        30.28F
$$

LSZ147-162-232200-
LAKE SUPERIOR

STATION/POSITION TIME  TEMP    WIND        PRES    WAVE
                       AIR SEA DIR/SP/G            HT/PER
                 (UTC) (F)     (DEG/KT/KT) (MB)    (FT/S)
W MID LAKE BUOY  1950   54 50  220/  6/  6 1022.8F   1/ 3
DEVILS ISLAND    2000   62      50/  3/  3 1022.5F
PORT WING        2000   64      30/  5/  7 1021.7F
SAXON HARBOR     2000   67      70/  6/  7 1022.0F
$$

LMZ867-665-643>646-232200-
LAKE MICHIGAN

STATION/POSITION TIME  TEMP    WIND        PRES    WAVE
                       AIR SEA DIR/SP/G            HT/PER
                 (UTC) (F)     (DEG/KT/KT) (MB)    (FT/S)
CHAMBERS ISLAND  2000   69     180/  4/ 11 1024.4F
S GREEN BAY BUOY 2000   65                 1025.5F
N MID LAKE BUOY  1950   59 58  200/ 10/ 12 1025.1S   1/ 4
NORTHPORT PIER   2000   69      60/  1/  2 1024.4S
SISTER BAY       2027          220/  9/ 12   N/A
KEWAUNEE LAKESHO 2000          170/  9/ 10   N/A
SHEBOYGAN LAKESH 2000   60 52  170/ 14/ 15 1025.7F
PORT WASHINGTON  2040   66     190/  4/  6 1025.7F
ATWATER BUOY     2000   61     130/  6/  8 1026.5F
S MID LAKE BUOY  1950   62 61  190/  8/ 10 1026.9F   1/ 3
KENOSHA   LAKESH 2000   62     160/  9/ 12 1025.4F
$$

TC  - TEMPERATURE IN CELSIUS
VSB - VISIBILITY IN STATUTE MILES
WCI - WIND CHILL INDEX
HX  - HEAT INDEX



USA.gov is the U.S. government's official web portal to all federal, state and local government web resources and services.